Regional Weather Roundup
Issued by NWS

Home | Current Version | Previous Version | Text Only | Print | Product List | Glossary Off
Versions: 1 2 3 4 5 6 7 8 9 10 11 12 13 14 15 16 17 18 19 20 21 22 23 24 25 26 27 28 29 30 31 32 33 34 35 36 37 38 39 40 41 42 43 44 45 46 47 48 49 50

949
ASUS44 KJAN 171103
RWRMS

MISSISSIPPI HOURLY WEATHER ROUNDUP
NATIONAL WEATHER SERVICE JACKSON MS
600 AM CDT THU APR 17 2014

NOTE: "FAIR: INDICATES FEW OR NO CLOUDS BELOW 12,000 FEET WITH NO
SIGNIFICANT WEATHER AND/OR OBSTRUCTIONS TO VISIBILITY.

MSZ001>002-007>008-010>013-018>021-025>028-034>036-171200-
NORTHWEST MISSISSIPPI

CITY           SKY/WX    TMP DP  RH WIND       PRES   REMARKS
CLARKSDALE       N/A     45  39  81 CALM      30.22R
CLEVELAND      FAIR      45  41  85 CALM      30.20R
GREENWOOD      CLEAR     45  38  76 E5        30.22R
GREENVILLE     CLEAR     45  39  79 CALM      30.19S
GRENADA        FAIR      43  39  87 SE3       30.23S
OLIVE BRANCH   CLEAR     39  37  93 SE5       30.23R
OXFORD         FAIR      45  36  70 SE3       30.25R
TUNICA         SUNNY     39  37  93 CALM      30.23R
$$

MSZ003>006-009-014>017-022>024-029>033-037>039-171200-
NORTHEAST MISSISSIPPI

CITY           SKY/WX    TMP DP  RH WIND       PRES   REMARKS
BELMONT        FAIR      45  36  70 E6        30.27R
COLUMBUS AFB   CLEAR     42  37  81 SE6       30.26R
CORINTH        FAIR      37  36  93 CALM      30.26R
GOLDN TRIANGLE CLEAR     48  36  61 SE13G20   30.27R
STARKVILLE     FAIR      43  37  81 CALM      30.25R
TUPELO         CLEAR     41  37  86 CALM      30.26R
$$

MSZ040-058-171200-
CENTRAL MISSISSIPPI

CITY           SKY/WX    TMP DP  RH WIND       PRES   REMARKS
JACKSON INTL   PTCLDY    41  39  93 CALM      30.21R
JACKSON HAWKNS PTCLDY    43  39  86 CALM      30.21R
MERIDIAN KEY   CLEAR     44  40  85 NE7       30.23R
MERIDIAN NAS   CLEAR     42  38  85 E5        30.25R
RAYMOND        FAIR      39  36  87 MISG      30.21R FOG
VICKSBURG      PTCLDY    48  44  86 SE5       30.19S
$$

MSZ059>079-171200-
SOUTH MISSISSIPPI

CITY           SKY/WX    TMP DP  RH WIND       PRES   REMARKS
BROOKHAVEN     PTSUNNY   43  43 100 NE3       30.20S
COLUMBIA       CLOUDY    45  45 100 MISG      30.17S
HATTIESBURG    CLOUDY    46  44  93 NW3       30.20R
MCCOMB         CLOUDY    48  44  86 NE3       30.17R
NATCHEZ        PTCLDY    41  37  87 CALM      30.18R
PINE BELT      CLOUDY    45  41  87 N6        30.20R
$$

MSZ080>082-171200-
COASTAL MISSISSIPPI

CITY           SKY/WX    TMP DP  RH WIND       PRES   REMARKS
BILOXI         PTCLDY    52  48  88 E9        30.14S
PASCAGOULA     CLOUDY    51  49  92 NE5       30.15S
GULFPORT       CLOUDY    56  47  71 NE8       30.14R
$$



USA.gov is the U.S. government's official web portal to all federal, state and local government web resources and services.